Location: Bourth
(48.7670°N, 0.8113°E)
Time: 14:44:34
(UTC+02:00)

X-37B - Visible Passes

Search period start: 20 September 2021 00:00
Search period end: 30 September 2021 00:00
Orbit: 381 x 393 km, 45.0° (Epoch: 29 August)

Date Brightness Start Highest point End Pass type
(mag) Time Alt. Az. Time Alt. Az. Time Alt. Az.
22 Sep 2.7 06:56:06 10° SSW 06:58:29 20° SSE 07:00:53 10° ESE visible
23 Sep 3.0 05:59:30 13° SSE 06:00:20 14° SSE 06:02:01 10° ESE visible
24 Sep 2.1 06:36:10 15° SW 06:38:09 27° SSE 06:40:54 10° ESE visible
25 Sep 2.7 05:40:29 19° SE 05:40:29 19° SE 05:42:21 10° ESE visible
25 Sep 1.5 07:13:09 10° WSW 07:16:09 40° S 07:19:09 10° ESE visible
26 Sep 1.6 06:17:04 29° SSW 06:17:52 34° SSE 06:20:48 10° ESE visible
27 Sep 3.2 05:21:20 17° ESE 05:21:20 17° ESE 05:22:22 10° ESE visible
27 Sep 1.3 06:53:37 15° WSW 06:55:54 42° S 06:58:55 10° ESE visible
28 Sep 1.4 05:57:54 39° SSE 05:57:54 39° SSE 06:00:37 10° ESE visible
29 Sep 3.9 05:02:12 10° ESE 05:02:12 10° ESE 05:02:16 10° ESE visible
29 Sep 1.3 06:34:29 27° SW 06:35:40 39° S 06:38:39 10° ESE visible
